[[{"header":{"parameterUnit":"m.s-1","parameterCategory":1,"la1":30.2991,"la2":30.254,"lo1":-89.0895,"lo2":-89.0444,"dy":0.0017,"dx":0.0017,"nx":28,"ny":28,"refTime":"2023-10-24T21:00:00:Z","depth":0,"parameterNumber":2,"parameterNumberName":"U-component_of_WINDS"},"data":[0,0,0,0,0,0,0,0,0,0,0,0,0,0,0,0,0,0,0,0,0,0,0,0,0,0,0,0,0,0,0,0,0,0,0,0,0,0,0,0,0,0,0,0,0,0,0,0,0,0,0,0,0,0,0,0,0,0,-4.8376,-4.8378,0,-4.8556,-4.8558,-4.856,-4.8616,-4.8615,-4.8614,-4.8613,-4.8794,-4.88,-4.8805,0,0,0,0,0,0,0,0,0,0,0,0,0,-4.8083,-4.8088,-4.8376,-4.8378,-4.838,-4.8555,-4.8558,-4.856,-4.8616,-4.8615,-4.8614,-4.8613,-4.8793,-4.8799,-4.8806,0,0,0,0,0,0,0,0,0,0,0,0,0,-4.8231,-4.809,-4.8376,-4.8429,-4.8436,-4.8555,-4.8558,-4.8561,-4.8616,-4.8615,-4.8614,-4.8612,-4.879,-4.8799,-4.8807,-4.8884,0,0,-4.8833,-4.8836,0,0,0,0,0,0,0,0,-4.8222,-4.8242,-4.8419,-4.8426,-4.8434,-4.8562,-4.8521,-4.8669,-4.8616,-4.8548,-4.8613,-4.8612,-4.8718,-4.8732,-4.8769,-4.8893,-4.89,-4.8833,-4.8838,-4.8842,-4.8844,0,0,0,0,0,0,0,-4.8212,-4.8234,-4.8447,-4.8422,-4.8431,-4.8445,-4.8465,-4.8549,-4.8638,-4.8554,-4.8558,-4.8579,-4.8722,-4.876,-4.8773,-4.8903,-4.8833,-4.8841,-4.8846,-4.8849,-4.9105,-4.9106,0,0,0,0,0,0,-4.8193,-4.8225,-4.8441,-4.8452,-4.8323,-4.8451,-4.8473,-4.8522,-4.8637,-4.8653,-4.858,-4.8581,-4.8747,-4.8763,-4.878,-4.888,-4.8842,-4.885,-4.8855,-4.9103,-4.9105,-4.9107,0,0,0,0,0,0,-4.8186,-4.8212,-4.8434,-4.834,-4.837,-4.8458,-4.8512,-4.8526,-4.8565,-4.8657,-4.8673,-4.8603,-4.8746,-4.8768,-4.8859,-4.8887,-4.8854,-4.8861,-4.9101,-4.9104,-4.9106,-4.908,0,0,0,0,0,0,-4.8178,-4.8209,-4.8238,-4.8341,-4.8375,-4.8509,-4.8514,-4.8531,-4.858,-4.8583,-4.8683,-4.8698,-4.8747,-4.8846,-4.8867,-4.8898,-4.8868,-4.9099,-4.9102,-4.9105,-4.9078,-4.9081,-4.9083,0,0,0,0,0,-4.8167,-4.8222,-4.8239,-4.8265,-4.8413,-4.8511,-4.853,-4.8586,-4.8582,-4.8613,-4.8673,-4.8695,-4.8882,-4.8855,-4.8879,-4.8913,-4.9097,-4.9101,-4.9105,-4.9077,-4.9081,-4.9083,0,0,0,0,0,0,-4.8118,-4.8236,-4.8257,-4.8346,-4.8419,-4.852,-4.856,-4.8587,-4.8661,-4.8661,-4.8727,-4.8749,-4.8836,-4.8884,-4.8853,-4.8997,-4.899,-4.8999,-4.8961,-4.8965,-4.8967,-4.8953,-4.8875,0,0,0,0,0,-4.8118,-4.8188,-4.8288,-4.8357,-4.8393,-4.8471,-4.8515,-4.8553,-4.8629,-4.866,-4.8726,-4.8799,-4.8875,-4.8923,-4.8998,-4.9087,-4.9111,-4.9123,-4.9125,-4.9127,-4.9133,-4.9187,-4.9194,-4.912,-4.912,-4.912,0,0,-4.8118,-4.8192,-4.8231,-4.835,-4.841,-4.8481,-4.8495,-4.8569,-4.8623,-4.8671,-4.8761,-4.8813,-4.89,-4.8991,-4.9035,-4.9034,-4.916,-4.9132,-4.9133,-4.9138,-4.9192,-4.9199,-4.9205,-4.9123,-4.9122,-4.9122,0,0,-4.8155,-4.8217,-4.8283,-4.8345,-4.8437,-4.8489,-4.8505,-4.8605,-4.8641,-4.8734,-4.8773,-4.8838,-4.8966,-4.9028,-4.9075,-4.9143,-4.9166,-4.9165,-4.9177,-4.9229,-4.9235,-4.924,-4.9265,-4.9273,-4.9172,-4.9172,-4.9172,0,-4.8142,-4.8251,-4.8313,-4.8387,-4.8439,-4.8489,-4.8558,-4.8614,-4.8725,-4.876,-4.8759,-4.8924,-4.8986,-4.9094,-4.9111,-4.9148,-4.9169,-4.9152,-4.9229,-4.9235,-4.9241,-4.9266,-4.9275,-4.9171,-4.9171,-4.9171,-4.9171,0,-4.8233,-4.8308,-4.8351,-4.846,-4.8517,-4.8587,-4.8662,-4.8713,-4.8747,-4.88,-4.8896,-4.8973,-4.9065,-4.9095,-4.9127,-4.9209,-4.9206,-4.9216,-4.9211,-4.9247,-4.9271,-4.928,-4.917,-4.917,-4.917,-4.917,0,0,-4.8238,-4.8385,-4.8399,-4.8451,-4.8559,-4.8619,-4.8694,-4.8786,-4.8829,-4.8906,-4.8971,-4.9082,-4.9094,-4.9148,-4.9189,-4.9235,-4.9286,-4.9241,-4.9244,-4.9246,-4.9382,-4.9372,-4.9382,-4.9304,-4.9306,-4.9308,-4.9375,0,-4.8288,-4.8423,-4.8484,-4.8592,-4.8664,-4.8716,-4.8782,-4.8856,-4.8909,-4.8978,-4.9037,-4.9115,-4.9124,-4.9158,-4.9206,-4.9269,-4.9313,-4.9265,-4.9365,-4.9367,-4.9339,-4.9395,-4.9384,-4.9443,-4.9384,-4.9386,-4.9387,0,-4.8363,-4.8443,-4.8558,-4.8662,-4.8695,-4.8752,-4.8844,-4.891,-4.8997,-4.9033,-4.9097,-4.9138,-4.922,-4.9212,-4.9327,-4.9293,-4.9338,-4.9376,-4.938,-4.9389,-4.9377,-4.9405,-4.9463,-4.9472,-4.9403,-4.9401,-4.94,0,-4.8356,-4.8492,-4.858,-4.8623,-4.8746,-4.8786,-4.8839,-4.8925,-4.8978,-4.9059,-4.9095,-4.9184,-4.9232,-4.9301,-4.9365,-4.9353,-4.9475,-4.9472,-4.9507,-4.9506,-4.9528,-4.9525,-4.9593,-4.9559,-4.9559,-4.9559,-4.9559,0,-4.8404,-4.8473,-4.8579,-4.8632,-4.8713,-4.8784,-4.8861,-4.8918,-4.8995,-4.9062,-4.9113,-4.9174,-4.9257,-4.9329,-4.9381,-4.9469,-4.9491,-4.9523,-4.9535,-4.9517,-4.9513,-4.9546,-4.9543,-4.9561,-4.9561,-4.956,-4.956,0,-4.8408,-4.8482,-4.8581,-4.8692,-4.8721,-4.8775,-4.887,-4.8925,-4.8984,-4.9068,-4.9092,-4.9182,-4.9271,-4.9344,-4.9459,-4.9494,-4.9587,-4.9602,-4.9557,-4.9563,-4.9595,-4.9591,-4.9685,-4.9701,-4.9657,-4.9657,-4.9658,0,-4.8433,-4.8488,-4.8606,-4.8655,-4.8708,-4.8786,-4.8842,-4.8916,-4.8972,-4.9078,-4.9121,-4.9214,-4.9292,-4.9432,-4.9508,-4.9598,-4.9615,-4.9642,-4.9628,-4.961,-4.9615,-4.961,-4.9617,-4.9642,-4.9642,-4.9642,-4.9642,0,-4.847,-4.8505,-4.8584,-4.8677,-4.8743,-4.8819,-4.8896,-4.8934,-4.9023,-4.9083,-4.9176,-4.9237,-4.9357,-4.9449,-4.9548,-4.9604,-4.9638,-4.9647,-4.966,-4.9641,-4.9613,-4.9629,-4.956,-4.9643,-4.9643,-4.9643,-4.9643,-4.9643,-4.8485,-4.8538,-4.863,-4.8717,-4.8784,-4.8857,-4.8915,-4.8982,-4.9061,-4.9165,-4.9205,-4.93,-4.939,-4.9527,-4.9584,-4.966,-4.9664,-4.9682,-4.9687,-4.969,-4.9687,-4.9603,-4.9679,-4.9679,-4.9679,-4.9679,-4.9679,0,-4.8525,-4.8589,-4.8668,-4.8777,-4.8846,-4.8876,-4.8964,-4.902,-4.9104,-4.9185,-4.9262,-4.937,-4.9462,-4.9547,-4.9643,-4.9688,-4.9706,-4.971,-4.9707,-4.972,-4.9679,-4.9658,-4.9694,-4.9694,-4.9694,-4.9694,-4.9694,-4.9694,-4.8554,-4.8645,-4.8692,-4.8818,-4.8881,-4.8975,-4.9024,-4.9092,-4.9158,-4.9276,-4.9353,-4.9409,-4.9494,-4.9597,-4.9682,-4.9706,-4.9738,-4.9738,-4.9765,-4.9725,-4.9722,-4.972,-4.97,-4.9745,-4.9745,-4.98,-4.98,-4.98]},{"header":{"parameterUnit":"m.s-1","parameterCategory":1,"la1":30.2991,"la2":30.254,"lo1":-89.0895,"lo2":-89.0444,"dy":0.0017,"dx":0.0017,"nx":28,"ny":28,"refTime":"2023-10-24T21:00:00:Z","depth":0,"parameterNumber":3,"parameterNumberName":"V-component_of_WINDS"},"data":[0,0,0,0,0,0,0,0,0,0,0,0,0,0,0,0,0,0,0,0,0,0,0,0,0,0,0,0,0,0,0,0,0,0,0,0,0,0,0,0,0,0,0,0,0,0,0,0,0,0,0,0,0,0,0,0,0,0,2.667,2.6671,0,2.6794,2.6795,2.6797,2.6876,2.6877,2.6877,2.6878,2.7002,2.7005,2.7007,0,0,0,0,0,0,0,0,0,0,0,0,0,2.6501,2.6503,2.6669,2.6671,2.6673,2.6794,2.6795,2.6797,2.6876,2.6877,2.6877,2.6878,2.7001,2.7004,2.7008,0,0,0,0,0,0,0,0,0,0,0,0,0,2.6594,2.6504,2.6669,2.6727,2.6733,2.6793,2.6795,2.6797,2.6876,2.6877,2.6878,2.6878,2.7,2.7004,2.7008,2.702,0,0,2.7021,2.7023,0,0,0,0,0,0,0,0,2.6589,2.66,2.6717,2.6723,2.673,2.682,2.6781,2.6872,2.6876,2.6822,2.6878,2.6879,2.6941,2.695,2.6971,2.7025,2.7031,2.7022,2.7024,2.7026,2.7027,0,0,0,0,0,0,0,2.6582,2.6595,2.6719,2.6718,2.6727,2.6746,2.676,2.6799,2.6875,2.6826,2.6833,2.6846,2.6944,2.6967,2.6975,2.7033,2.7021,2.7025,2.7028,2.7029,2.7106,2.7106,0,0,0,0,0,0,2.6567,2.6589,2.6715,2.6722,2.666,2.6749,2.6765,2.6791,2.6875,2.6889,2.6846,2.685,2.6959,2.697,2.6979,2.7002,2.7026,2.703,2.7032,2.7107,2.7106,2.7106,0,0,0,0,0,0,2.6563,2.6577,2.671,2.6658,2.6676,2.6751,2.6779,2.6793,2.6816,2.689,2.6904,2.6855,2.696,2.6974,2.701,2.7007,2.7032,2.7036,2.7108,2.7107,2.7106,2.7043,0,0,0,0,0,0,2.6558,2.6575,2.658,2.6657,2.6679,2.6738,2.6779,2.6795,2.6823,2.6829,2.6902,2.6915,2.6962,2.7003,2.7014,2.7013,2.7039,2.7108,2.7107,2.7106,2.7046,2.7041,2.7036,0,0,0,0,0,2.6551,2.6556,2.658,2.6595,2.6686,2.6738,2.675,2.6805,2.6822,2.6828,2.6877,2.6912,2.7005,2.7007,2.702,2.7019,2.7109,2.7108,2.7106,2.7048,2.7042,2.7036,0,0,0,0,0,0,2.6475,2.6567,2.6595,2.6624,2.6673,2.6751,2.676,2.6796,2.6839,2.6843,2.6909,2.6925,2.6955,2.6991,2.6991,2.7037,2.7061,2.7063,2.7013,2.7007,2.7002,2.6993,2.7043,0,0,0,0,0,2.6462,2.6496,2.6575,2.6593,2.6617,2.6684,2.6708,2.6747,2.6799,2.682,2.6871,2.6919,2.696,2.6985,2.7027,2.7052,2.707,2.7058,2.7053,2.7048,2.7049,2.7068,2.7065,2.7102,2.7102,2.7102,0,0,2.6434,2.6489,2.6506,2.658,2.6622,2.6656,2.67,2.6734,2.6761,2.6825,2.6864,2.6903,2.6962,2.6993,2.701,2.7024,2.7043,2.7047,2.7043,2.7046,2.7067,2.7063,2.706,2.7101,2.7101,2.7102,0,0,2.6403,2.6447,2.6469,2.6511,2.6575,2.6621,2.6626,2.67,2.6729,2.6769,2.6819,2.6851,2.6919,2.696,2.699,2.6977,2.7013,2.6989,2.6962,2.698,2.6977,2.6975,2.6973,2.6971,2.6989,2.6989,2.6989,0,2.636,2.6415,2.6475,2.6508,2.654,2.6601,2.6625,2.6662,2.6736,2.6756,2.6771,2.6861,2.6904,2.6948,2.6946,2.6967,2.6976,2.6981,2.6973,2.6971,2.697,2.6969,2.6967,2.6986,2.6986,2.6986,2.6987,0,2.6361,2.6399,2.6409,2.6481,2.6514,2.6541,2.6606,2.6632,2.6669,2.6713,2.6755,2.681,2.6865,2.6878,2.6913,2.6928,2.6935,2.696,2.6986,2.6962,2.6962,2.6962,2.6981,2.6982,2.6983,2.6984,0,0,2.6283,2.6391,2.6394,2.6429,2.6506,2.6536,2.6567,2.6623,2.6645,2.6694,2.6723,2.678,2.6806,2.6839,2.688,2.6895,2.6885,2.6919,2.6922,2.6913,2.6908,2.689,2.6888,2.6909,2.6909,2.6909,2.6904,0,2.6265,2.6325,2.6382,2.6422,2.6459,2.6519,2.6547,2.6597,2.6639,2.6677,2.6724,2.6765,2.6793,2.6815,2.6833,2.6882,2.6885,2.6884,2.6938,2.6939,2.6922,2.6888,2.6868,2.686,2.6904,2.6904,2.6904,0,2.6251,2.63,2.6344,2.6421,2.6438,2.6462,2.652,2.6554,2.6613,2.6643,2.6682,2.6726,2.6763,2.6785,2.6837,2.6835,2.6861,2.6889,2.689,2.6898,2.692,2.6896,2.6858,2.6857,2.6904,2.6904,2.6904,0,2.6192,2.627,2.6307,2.6335,2.6424,2.644,2.6478,2.6538,2.6569,2.6618,2.664,2.6692,2.6721,2.6761,2.6818,2.6829,2.6866,2.6892,2.6893,2.6892,2.6898,2.6897,2.6865,2.6912,2.6912,2.6912,2.6912,0,2.6167,2.6192,2.6283,2.6306,2.6337,2.6402,2.6431,2.6474,2.6527,2.656,2.6614,2.6644,2.6717,2.6756,2.68,2.6839,2.6851,2.6877,2.6889,2.6873,2.687,2.6891,2.6894,2.6912,2.6912,2.6912,2.6912,0,2.6107,2.6168,2.6214,2.6296,2.6317,2.6336,2.6407,2.6432,2.6479,2.652,2.6533,2.6606,2.6655,2.6716,2.6783,2.6814,2.6848,2.6865,2.6828,2.6836,2.6834,2.6834,2.6816,2.6818,2.6861,2.686,2.686,0,2.6087,2.6108,2.6193,2.622,2.6257,2.6299,2.6332,2.6398,2.643,2.65,2.6517,2.6571,2.6617,2.6692,2.6751,2.6804,2.6824,2.6814,2.6832,2.6816,2.6826,2.6825,2.6828,2.6809,2.6808,2.6808,2.6807,0,2.6046,2.6076,2.6122,2.6179,2.6217,2.6265,2.6315,2.6334,2.641,2.6443,2.6495,2.6531,2.6602,2.6655,2.6715,2.6755,2.6794,2.6801,2.6805,2.6789,2.6768,2.6782,2.6818,2.6801,2.6802,2.6802,2.6803,2.6803,2.6007,2.603,2.6095,2.6144,2.619,2.6236,2.6265,2.6316,2.6361,2.6425,2.6461,2.6512,2.6573,2.6659,2.6697,2.6738,2.6753,2.6757,2.6758,2.6759,2.6755,2.6761,2.6749,2.675,2.675,2.675,2.675,0,2.597,2.6016,2.6061,2.6131,2.6171,2.6206,2.6264,2.6295,2.634,2.6394,2.6439,2.65,2.6553,2.6617,2.6674,2.6694,2.6714,2.6707,2.6707,2.6716,2.6738,2.673,2.6691,2.6691,2.6691,2.6691,2.6691,2.6691,2.5956,2.5998,2.6037,2.6102,2.6148,2.6199,2.623,2.6274,2.6318,2.6384,2.6428,2.647,2.6529,2.6591,2.6642,2.6659,2.6678,2.6666,2.6689,2.6709,2.6714,2.6719,2.6712,2.6669,2.6669,2.6664,2.6664,2.6664]}]]